Radiation Dose at Monitoring Post of Fukushima Daini Nuclear Power Station
Date,Time,MP-1(microSv/h),MP-2(microSv/h),MP-3(microSv/h),MP-4(microSv/h),MP-5(microSv/h),MP-6(microSv/h),MP-7(microSv/h),Wind Direction,Wind Velocity(m/s),Rain
2015/12/10,00:00,0.460,0.271,0.489,0.446,0.422,0.226,0.198,southwest,12.0,No
2015/12/10,00:10,0.460,0.272,0.491,0.443,0.424,0.225,0.199,southwest,10.1,No
2015/12/10,00:20,0.461,0.273,0.490,0.444,0.424,0.225,0.199,southwest,8.8,No
2015/12/10,00:30,0.461,0.272,0.490,0.444,0.424,0.225,0.197,southwest,7.3,No
2015/12/10,00:40,0.461,0.273,0.490,0.444,0.423,0.225,0.197,southwest,8.5,No
2015/12/10,00:50,0.461,0.273,0.494,0.443,0.424,0.224,0.198,southwest,7.7,No
2015/12/10,01:00,0.462,0.273,0.492,0.444,0.422,0.225,0.198,southwest,6.9,No
2015/12/10,01:10,0.462,0.272,0.490,0.444,0.423,0.225,0.198,southwest,9.5,No
2015/12/10,01:20,0.461,0.273,0.492,0.443,0.424,0.225,0.198,southwest,9.5,No
2015/12/10,01:30,0.462,0.272,0.492,0.443,0.422,0.225,0.197,south-southwest,7.4,No
2015/12/10,01:40,0.464,0.272,0.490,0.445,0.421,0.225,0.198,southwest,6.9,No
2015/12/10,01:50,0.461,0.271,0.490,0.444,0.423,0.225,0.197,southwest,10.0,No
2015/12/10,02:00,0.462,0.271,0.492,0.445,0.423,0.225,0.197,southwest,7.5,No
2015/12/10,02:10,0.462,0.272,0.491,0.446,0.422,0.225,0.198,southwest,5.7,No
2015/12/10,02:20,0.462,0.272,0.489,0.446,0.423,0.224,0.197,southwest,7.7,No
2015/12/10,02:30,0.462,0.271,0.491,0.442,0.423,0.225,0.198,southwest,7.1,No
2015/12/10,02:40,0.461,0.271,0.490,0.442,0.423,0.225,0.198,southwest,7.8,No
2015/12/10,02:50,0.463,0.272,0.489,0.444,0.421,0.225,0.197,southwest,10.1,No
2015/12/10,03:00,0.461,0.272,0.491,0.444,0.423,0.225,0.198,southwest,8.4,No
2015/12/10,03:10,0.461,0.271,0.491,0.443,0.424,0.225,0.197,southwest,8.4,No
2015/12/10,03:20,0.462,0.271,0.490,0.443,0.425,0.224,0.198,southwest,10.0,No
2015/12/10,03:30,0.461,0.273,0.491,0.444,0.424,0.224,0.199,southwest,8.1,No
2015/12/10,03:40,0.462,0.273,0.492,0.443,0.423,0.226,0.197,southwest,9.8,No
2015/12/10,03:50,0.461,0.272,0.490,0.446,0.423,0.225,0.197,southwest,7.8,No
2015/12/10,04:00,0.463,0.271,0.490,0.444,0.422,0.223,0.197,southwest,4.9,No
2015/12/10,04:10,0.460,0.272,0.492,0.443,0.424,0.224,0.198,southwest,5.4,No
2015/12/10,04:20,0.461,0.273,0.490,0.446,0.423,0.224,0.197,southwest,6.1,No
2015/12/10,04:30,0.462,0.271,0.489,0.444,0.424,0.224,0.197,southwest,5.8,No
2015/12/10,04:40,0.462,0.271,0.491,0.444,0.426,0.225,0.199,south-southwest,4.8,No
2015/12/10,04:50,0.460,0.271,0.489,0.444,0.421,0.225,0.197,southwest,5.3,No
2015/12/10,05:00,0.463,0.273,0.491,0.445,0.422,0.225,0.197,south-southwest,5.6,No
2015/12/10,05:10,0.462,0.271,0.490,0.443,0.425,0.225,0.197,south-southwest,6.8,No
2015/12/10,05:20,0.461,0.270,0.489,0.445,0.423,0.224,0.197,south-southwest,5.8,No
2015/12/10,05:30,0.462,0.271,0.490,0.445,0.423,0.225,0.196,south-southwest,4.4,No
2015/12/10,05:40,0.462,0.272,0.491,0.443,0.423,0.224,0.198,southwest,7.7,No
2015/12/10,05:50,0.459,0.270,0.488,0.446,0.422,0.223,0.198,southwest,8.1,No
2015/12/10,06:00,0.462,0.271,0.491,0.444,0.422,0.225,0.197,southwest,8.1,No
2015/12/10,06:10,0.463,0.271,0.490,0.443,0.422,0.225,0.199,southwest,7.1,No
2015/12/10,06:20,0.461,0.273,0.489,0.445,0.422,0.224,0.196,southwest,7.0,No
2015/12/10,06:30,0.463,0.270,0.491,0.445,0.423,0.225,0.197,southwest,8.1,No
2015/12/10,06:40,0.462,0.273,0.488,0.442,0.422,0.224,0.198,southwest,8.4,No
2015/12/10,06:50,0.458,0.271,0.491,0.445,0.423,0.224,0.198,southwest,8.4,No
2015/12/10,07:00,0.463,0.272,0.490,0.442,0.423,0.224,0.197,west-southwest,7.9,No
2015/12/10,07:10,0.462,0.272,0.489,0.443,0.423,0.225,0.198,southwest,6.4,No
2015/12/10,07:20,0.458,0.270,0.492,0.444,0.422,0.224,0.197,west-southwest,6.1,No
2015/12/10,07:30,0.464,0.271,0.488,0.442,0.422,0.224,0.197,southwest,6.7,No
2015/12/10,07:40,0.462,0.272,0.489,0.445,0.424,0.224,0.196,southwest,7.4,No
2015/12/10,07:50,0.462,0.272,0.490,0.442,0.422,0.224,0.197,southwest,8.8,No
2015/12/10,08:00,0.463,0.271,0.490,0.442,0.424,0.224,0.197,southwest,7.4,No
2015/12/10,08:10,0.460,0.272,0.493,0.444,0.422,0.224,0.197,southwest,5.1,No
2015/12/10,08:20,0.462,0.272,0.486,0.441,0.422,0.224,0.198,southwest,3.5,No
2015/12/10,08:30,0.462,0.272,0.491,0.445,0.422,0.224,0.197,southwest,3.7,No
2015/12/10,08:40,0.460,0.271,0.488,0.442,0.421,0.224,0.198,south-southwest,3.4,No
2015/12/10,08:50,0.462,0.270,0.490,0.444,0.424,0.224,0.196,south-southwest,3.6,No
2015/12/10,09:00,0.461,0.270,0.489,0.441,0.422,0.224,0.198,south-southwest,1.5,No
2015/12/10,09:10,0.463,0.271,0.490,0.445,0.425,0.224,0.197,south-southwest,1.9,No
2015/12/10,09:20,0.459,0.272,0.490,0.441,0.423,0.225,0.197,south-southwest,2.3,No
2015/12/10,09:30,0.463,0.270,0.488,0.446,0.425,0.224,0.198,south-southwest,1.8,No
2015/12/10,09:40,0.460,0.271,0.491,0.440,0.423,0.225,0.197,south-southwest,1.3,No
2015/12/10,09:50,0.461,0.269,0.487,0.444,0.424,0.225,0.197,south-southwest,1.6,No
2015/12/10,10:00,0.461,0.271,0.493,0.441,0.420,0.224,0.197,south-southwest,1.9,No
2015/12/10,10:10,0.461,0.269,0.487,0.445,0.424,0.225,0.196,south,3.0,No
2015/12/10,10:20,0.457,0.272,0.491,0.441,0.421,0.225,0.196,south,5.3,No
2015/12/10,10:30,0.461,0.270,0.485,0.444,0.425,0.224,0.197,south,7.7,No
2015/12/10,10:40,0.460,0.271,0.491,0.441,0.422,0.222,0.197,south,9.3,No
2015/12/10,10:50,0.463,0.271,0.486,0.442,0.427,0.224,0.197,south,9.2,No
2015/12/10,11:00,0.457,0.273,0.491,0.442,0.422,0.224,0.196,south,8.8,No
2015/12/10,11:10,0.463,0.270,0.487,0.443,0.427,0.225,0.198,south-southwest,7.1,No
2015/12/10,11:20,0.458,0.273,0.490,0.445,0.423,0.224,0.197,south-southwest,7.7,No
2015/12/10,11:30,0.465,0.270,0.487,0.443,0.422,0.225,0.197,south-southwest,8.8,No
2015/12/10,11:40,0.458,0.271,0.490,0.446,0.423,0.225,0.197,south-southwest,7.3,No
2015/12/10,11:50,0.463,0.271,0.490,0.443,0.422,0.224,0.197,south,6.0,No
2015/12/10,12:00,0.460,0.271,0.487,0.445,0.425,0.226,0.197,south,7.7,No
2015/12/10,12:10,0.462,0.272,0.490,0.442,0.421,0.224,0.196,south,8.1,No
2015/12/10,12:20,0.463,0.270,0.488,0.445,0.427,0.225,0.198,south,7.9,No
2015/12/10,12:30,0.459,0.272,0.492,0.444,0.422,0.224,0.196,south,7.4,No
2015/12/10,12:40,0.464,0.270,0.488,0.443,0.425,0.226,0.198,south,7.8,No
2015/12/10,12:50,0.459,0.272,0.489,0.445,0.425,0.225,0.197,south,8.9,No
2015/12/10,13:00,0.463,0.270,0.490,0.442,0.424,0.225,0.197,south,9.0,No
2015/12/10,13:10,0.461,0.270,0.486,0.444,0.425,0.224,0.197,south,8.4,No
2015/12/10,13:20,0.462,0.272,0.490,0.443,0.423,0.224,0.197,south,7.9,No
2015/12/10,13:30,0.461,0.271,0.486,0.446,0.425,0.225,0.197,south,6.0,No
2015/12/10,13:40,0.461,0.272,0.492,0.442,0.423,0.225,0.198,south-southwest,5.8,No
2015/12/10,13:50,0.463,0.271,0.488,0.446,0.425,0.224,0.196,south,6.4,No
2015/12/10,14:00,0.458,0.271,0.491,0.446,0.423,0.224,0.198,south-southwest,5.8,No
2015/12/10,14:10,0.463,0.273,0.490,0.444,0.427,0.224,0.197,south-southwest,3.4,No
2015/12/10,14:20,0.461,0.272,0.485,0.446,0.422,0.225,0.197,south-southwest,3.6,No
2015/12/10,14:30,0.464,0.272,0.491,0.444,0.427,0.224,0.197,south,3.6,No
2015/12/10,14:40,0.457,0.273,0.489,0.446,0.421,0.224,0.197,south,4.6,No
2015/12/10,14:50,0.466,0.271,0.491,0.441,0.426,0.225,0.198,south,7.1,No
2015/12/10,15:00,0.458,0.271,0.489,0.446,0.421,0.224,0.198,south,8.1,No
2015/12/10,15:10,0.462,0.271,0.492,0.443,0.429,0.225,0.198,south,8.1,No
2015/12/10,15:20,0.460,0.274,0.488,0.447,0.425,0.223,0.197,south,5.7,No
2015/12/10,15:30,0.463,0.272,0.492,0.444,0.427,0.225,0.197,south-southwest,4.7,No
2015/12/10,15:40,0.460,0.272,0.488,0.447,0.425,0.224,0.197,southwest,2.0,No
2015/12/10,15:50,0.464,0.272,0.495,0.443,0.427,0.226,0.199,west-southwest,1.6,No
2015/12/10,16:00,0.463,0.272,0.490,0.445,0.424,0.224,0.197,southwest,2.2,No
2015/12/10,16:10,0.463,0.273,0.491,0.447,0.428,0.225,0.197,southwest,0.9,No
2015/12/10,16:20,0.463,0.271,0.491,0.446,0.424,0.224,0.198,south,1.7,No
2015/12/10,16:30,0.460,0.273,0.490,0.447,0.424,0.225,0.197,south,1.6,No
2015/12/10,16:40,0.464,0.272,0.492,0.443,0.427,0.224,0.198,south-southeast,1.5,No
2015/12/10,16:50,0.461,0.271,0.490,0.447,0.423,0.224,0.198,south-southwest,2.7,No
2015/12/10,17:00,0.463,0.272,0.493,0.443,0.426,0.226,0.197,southwest,2.0,No
2015/12/10,17:10,0.461,0.272,0.488,0.446,0.425,0.223,0.197,south-southwest,1.6,No
2015/12/10,17:20,0.464,0.272,0.494,0.445,0.426,0.226,0.198,southwest,1.5,No
2015/12/10,17:30,0.462,0.272,0.489,0.444,0.424,0.224,0.199,south-southwest,1.1,No
2015/12/10,17:40,0.461,0.272,0.492,0.446,0.422,0.225,0.198,southwest,2.0,No
2015/12/10,17:50,0.464,0.274,0.491,0.444,0.424,0.225,0.197,south,1.5,No
2015/12/10,18:00,0.462,0.272,0.490,0.446,0.424,0.224,0.197,east-southeast,0.9,No
2015/12/10,18:10,0.464,0.272,0.495,0.443,0.424,0.225,0.198,-,CALM,No
2015/12/10,18:20,0.461,0.273,0.489,0.445,0.424,0.225,0.198,south-southwest,1.2,No
2015/12/10,18:30,0.464,0.273,0.493,0.446,0.423,0.224,0.197,south-southwest,1.8,No
2015/12/10,18:40,0.461,0.273,0.490,0.443,0.425,0.226,0.198,south,2.7,No
2015/12/10,18:50,0.462,0.272,0.492,0.446,0.425,0.225,0.198,south-southwest,2.5,No
2015/12/10,19:00,0.465,0.272,0.493,0.444,0.425,0.225,0.197,south,3.7,No
2015/12/10,19:10,0.461,0.273,0.490,0.446,0.425,0.225,0.199,south,5.5,No
2015/12/10,19:20,0.465,0.272,0.494,0.446,0.423,0.224,0.198,south,5.5,No
2015/12/10,19:30,0.463,0.273,0.489,0.445,0.425,0.226,0.198,south,4.2,No
2015/12/10,19:40,0.461,0.272,0.491,0.445,0.424,0.225,0.197,south,4.7,No
2015/12/10,19:50,0.465,0.272,0.491,0.446,0.423,0.226,0.198,south,3.3,No
2015/12/10,20:00,0.460,0.273,0.492,0.448,0.425,0.227,0.199,south-southeast,2.7,No
2015/12/10,20:10,0.465,0.273,0.492,0.447,0.425,0.225,0.198,east,1.0,No
2015/12/10,20:20,0.462,0.272,0.490,0.443,0.427,0.226,0.199,east-southeast,1.2,No
2015/12/10,20:30,0.461,0.273,0.493,0.448,0.424,0.225,0.198,east,1.1,No
2015/12/10,20:40,0.464,0.272,0.491,0.445,0.423,0.226,0.199,north-northeast,1.8,No
2015/12/10,20:50,0.462,0.273,0.491,0.447,0.426,0.225,0.198,north,2.3,No
2015/12/10,21:00,0.466,0.273,0.493,0.446,0.424,0.225,0.197,north,2.8,No
2015/12/10,21:10,0.465,0.273,0.491,0.444,0.426,0.226,0.200,north,2.7,No
2015/12/10,21:20,0.463,0.273,0.494,0.447,0.426,0.225,0.199,north-northeast,2.6,No
2015/12/10,21:30,0.463,0.272,0.490,0.446,0.423,0.226,0.199,north-northeast,3.0,No
2015/12/10,21:40,0.461,0.273,0.491,0.447,0.425,0.226,0.199,northeast,3.6,No
2015/12/10,21:50,0.464,0.272,0.492,0.445,0.424,0.225,0.198,north-northeast,1.8,No
2015/12/10,22:00,0.463,0.271,0.491,0.445,0.425,0.224,0.198,northeast,1.8,No
2015/12/10,22:10,0.464,0.273,0.493,0.447,0.424,0.226,0.198,east-northeast,1.8,Yes
2015/12/10,22:20,0.463,0.272,0.489,0.444,0.424,0.225,0.198,northeast,2.3,Yes
2015/12/10,22:30,0.462,0.272,0.494,0.445,0.424,0.225,0.199,northeast,2.4,Yes
2015/12/10,22:40,0.465,0.273,0.492,0.446,0.428,0.226,0.198,east-northeast,2.1,Yes
2015/12/10,22:50,0.462,0.272,0.491,0.445,0.423,0.226,0.198,east,1.8,Yes
2015/12/10,23:00,0.465,0.274,0.493,0.446,0.426,0.226,0.198,northeast,1.3,Yes
2015/12/10,23:10,0.462,0.274,0.491,0.445,0.424,0.225,0.198,east-northeast,1.4,Yes
2015/12/10,23:20,0.464,0.273,0.493,0.445,0.424,0.226,0.198,southeast,2.0,Yes
2015/12/10,23:30,0.464,0.274,0.492,0.445,0.425,0.225,0.199,southeast,2.0,Yes
2015/12/10,23:40,0.461,0.274,0.491,0.444,0.423,0.226,0.199,south-southeast,2.9,Yes
2015/12/10,23:50,0.465,0.273,0.495,0.446,0.425,0.227,0.199,south-southeast,3.1,Yes
